• en Belgique
  • Liste des pays
  • À 7 jours
  • Température de l'eau
  • Carte satellitaire
  • Carte météo
  • Widgets météo
  • user-avatar
    Se connecter

    Météo par heure à Algérie

    Ce jour, 20 Septembre, Mercredi

    Heure Température Précipitation Vent Pression Humidité
    00:00 +21°C° 0 mm 2 m/s 752 mmHg 70%
    01:00 +21°C° 0 mm 2 m/s 752 mmHg 71%
    02:00 +22°C° 0 mm 1 m/s 752 mmHg 71%
    03:00 +21°C° 0 mm 1 m/s 752 mmHg 72%
    04:00 +21°C° 0 mm 1 m/s 752 mmHg 72%
    05:00 +21°C° 0 mm 1 m/s 752 mmHg 72%
    06:00 +21°C° 0 mm 1 m/s 752 mmHg 71%
    07:00 +23°C° 0 mm 2 m/s 752 mmHg 61%
    08:00 +24°C° 0 mm 2 m/s 752 mmHg 50%
    09:00 +26°C° 0 mm 2 m/s 753 mmHg 40%
    10:00 +27°C° 0 mm 3 m/s 753 mmHg 36%
    11:00 +28°C° 0 mm 3 m/s 752 mmHg 31%
    12:00 +30°C° 0 mm 4 m/s 752 mmHg 27%
    13:00 +30°C° 0 mm 4 m/s 752 mmHg 28%
    14:00 +30°C° 0 mm 5 m/s 751 mmHg 30%
    15:00 +30°C° 0 mm 5 m/s 751 mmHg 31%
    16:00 +29°C° 0 mm 5 m/s 751 mmHg 38%
    17:00 +27°C° 0 mm 5 m/s 751 mmHg 44%
    18:00 +26°C° 0 mm 5 m/s 751 mmHg 51%
    19:00 +25°C° 0 mm 4 m/s 751 mmHg 54%
    20:00 +25°C° 0 mm 4 m/s 751 mmHg 58%
    21:00 +23°C° 0 mm 4 m/s 751 mmHg 61%
    22:00 +23°C° 0 mm 4 m/s 751 mmHg 60%
    23:00 +23°C° 0 mm 4 m/s 751 mmHg 59%

    Demain, 21 Septembre, Jeudi

    Heure Température Précipitation Vent Pression Humidité
    00:00 +23°C° 0 mm 4 m/s 751 mmHg 57%
    01:00 +23°C° 0 mm 4 m/s 750 mmHg 54%
    02:00 +23°C° 0 mm 4 m/s 750 mmHg 50%
    03:00 +23°C° 0 mm 4 m/s 750 mmHg 47%
    04:00 +23°C° 0 mm 4 m/s 750 mmHg 44%
    05:00 +23°C° 0 mm 4 m/s 750 mmHg 40%
    06:00 +23°C° 0 mm 4 m/s 750 mmHg 37%
    07:00 +26°C° 0 mm 4 m/s 750 mmHg 34%
    08:00 +29°C° 0 mm 4 m/s 750 mmHg 31%
    09:00 +32°C° 0 mm 4 m/s 750 mmHg 28%
    10:00 +33°C° 0 mm 4 m/s 750 mmHg 26%
    11:00 +35°C° 0 mm 4 m/s 750 mmHg 23%
    12:00 +36°C° 0 mm 5 m/s 749 mmHg 21%
    13:00 +36°C° 0 mm 5 m/s 749 mmHg 21%
    14:00 +36°C° 0 mm 5 m/s 748 mmHg 21%
    15:00 +36°C° 0 mm 5 m/s 748 mmHg 21%
    16:00 +34°C° 0 mm 5 m/s 748 mmHg 26%
    17:00 +33°C° 0 mm 5 m/s 748 mmHg 31%
    18:00 +30°C° 0 mm 5 m/s 748 mmHg 36%
    19:00 +30°C° 0 mm 5 m/s 748 mmHg 38%
    20:00 +29°C° 0 mm 5 m/s 749 mmHg 39%
    21:00 +29°C° 0 mm 5 m/s 749 mmHg 40%
    22:00 +28°C° 0 mm 4 m/s 749 mmHg 39%
    23:00 +28°C° 0 mm 4 m/s 749 mmHg 39%

    Après-demain, 22 Septembre, Vendredi

    Heure Température Précipitation Vent Pression Humidité
    00:00 +28°C° 0 mm 4 m/s 749 mmHg 38%
    01:00 +28°C° 0 mm 4 m/s 748 mmHg 39%
    02:00 +27°C° 0 mm 4 m/s 748 mmHg 40%
    03:00 +27°C° 0 mm 4 m/s 748 mmHg 40%
    04:00 +26°C° 0 mm 3 m/s 748 mmHg 41%
    05:00 +26°C° 0 mm 3 m/s 748 mmHg 42%
    06:00 +26°C° 0 mm 3 m/s 749 mmHg 43%
    07:00 +28°C° 0 mm 3 m/s 749 mmHg 38%
    08:00 +30°C° 0 mm 3 m/s 749 mmHg 33%
    09:00 +32°C° 0 mm 2 m/s 750 mmHg 29%
    10:00 +34°C° 0 mm 3 m/s 749 mmHg 26%
    11:00 +35°C° 0 mm 3 m/s 749 mmHg 24%
    12:00 +36°C° 0 mm 4 m/s 749 mmHg 22%
    13:00 +36°C° 0 mm 4 m/s 749 mmHg 24%
    14:00 +36°C° 0 mm 5 m/s 749 mmHg 25%
    15:00 +35°C° 0 mm 5 m/s 749 mmHg 27%
    16:00 +34°C° 0 mm 5 m/s 749 mmHg 32%
    17:00 +32°C° 0 mm 4 m/s 749 mmHg 38%
    18:00 +30°C° 0 mm 4 m/s 749 mmHg 43%
    19:00 +29°C° 0 mm 4 m/s 750 mmHg 45%
    20:00 +29°C° 0 mm 3 m/s 750 mmHg 48%
    21:00 +28°C° 0 mm 3 m/s 750 mmHg 50%
    22:00 +28°C° 0 mm 3 m/s 750 mmHg 47%
    23:00 +28°C° 0 mm 3 m/s 750 mmHg 44%

    23 Septembre, Samedi

    Heure Température Précipitation Vent Pression Humidité
    00:00 +28°C° 0 mm 4 m/s 750 mmHg 41%
    01:00 +28°C° 0 mm 4 m/s 749 mmHg 40%
    02:00 +28°C° 0 mm 4 m/s 749 mmHg 39%
    03:00 +28°C° 0 mm 4 m/s 749 mmHg 38%
    04:00 +28°C° 0 mm 4 m/s 749 mmHg 38%
    05:00 +28°C° 0 mm 5 m/s 750 mmHg 39%
    06:00 +27°C° 0 mm 5 m/s 750 mmHg 40%
    07:00 +29°C° 0 mm 5 m/s 750 mmHg 35%
    08:00 +32°C° 0 mm 5 m/s 750 mmHg 31%
    09:00 +34°C° 0 mm 5 m/s 751 mmHg 27%
    10:00 +35°C° 0 mm 4 m/s 751 mmHg 24%
    11:00 +36°C° 0 mm 4 m/s 750 mmHg 21%
    12:00 +38°C° 0 mm 4 m/s 750 mmHg 19%
    13:00 +37°C° 0 mm 4 m/s 750 mmHg 22%
    14:00 +36°C° 0 mm 4 m/s 749 mmHg 24%
    15:00 +35°C° 0 mm 4 m/s 749 mmHg 27%
    16:00 +34°C° 0,1 mm 3 m/s 749 mmHg 33%
    17:00 +31°C° 0,1 mm 3 m/s 749 mmHg 38%
    18:00 +29°C° 0,1 mm 2 m/s 750 mmHg 44%
    19:00 +28°C° 0,1 mm 2 m/s 750 mmHg 48%
    20:00 +28°C° 0,1 mm 2 m/s 750 mmHg 51%
    21:00 +27°C° 0,1 mm 3 m/s 751 mmHg 55%
    22:00 +26°C° 0 mm 3 m/s 751 mmHg 60%
    23:00 +26°C° 0 mm 3 m/s 751 mmHg 64%

    24 Septembre, Dimanche

    Heure Température Précipitation Vent Pression Humidité
    00:00 +25°C° 0 mm 3 m/s 751 mmHg 69%
    01:00 +25°C° 0 mm 3 m/s 751 mmHg 74%
    02:00 +24°C° 0 mm 2 m/s 751 mmHg 79%
    03:00 +24°C° 0 mm 2 m/s 751 mmHg 84%
    04:00 +24°C° 0 mm 2 m/s 751 mmHg 85%
    05:00 +24°C° 0 mm 2 m/s 751 mmHg 87%
    06:00 +23°C° 0 mm 2 m/s 751 mmHg 89%
    07:00 +25°C° 0 mm 2 m/s 752 mmHg 80%
    08:00 +26°C° 0 mm 2 m/s 752 mmHg 71%
    09:00 +27°C° 0 mm 2 m/s 753 mmHg 62%
    10:00 +28°C° 0 mm 2 m/s 753 mmHg 56%
    11:00 +29°C° 0 mm 3 m/s 753 mmHg 50%
    12:00 +30°C° 0 mm 3 m/s 753 mmHg 44%
    13:00 +30°C° 0 mm 4 m/s 752 mmHg 45%
    14:00 +30°C° 0 mm 4 m/s 752 mmHg 46%
    15:00 +30°C° 0 mm 5 m/s 752 mmHg 47%
    16:00 +29°C° 0 mm 4 m/s 752 mmHg 52%
    17:00 +28°C° 0 mm 4 m/s 752 mmHg 57%
    18:00 +26°C° 0 mm 4 m/s 752 mmHg 62%
    19:00 +26°C° 0 mm 4 m/s 753 mmHg 65%
    20:00 +25°C° 0 mm 3 m/s 753 mmHg 68%
    21:00 +25°C° 0 mm 3 m/s 753 mmHg 71%
    22:00 +24°C° 0 mm 3 m/s 753 mmHg 72%
    23:00 +24°C° 0 mm 3 m/s 753 mmHg 74%

    25 Septembre, Lundi

    Heure Température Précipitation Vent Pression Humidité
    00:00 +22°C° 0 mm 3 m/s 752 mmHg 75%
    01:00 +22°C° 0 mm 3 m/s 752 mmHg 75%
    02:00 +22°C° 0 mm 3 m/s 752 mmHg 76%
    03:00 +21°C° 0 mm 3 m/s 752 mmHg 76%
    04:00 +21°C° 0 mm 3 m/s 752 mmHg 74%
    05:00 +21°C° 0 mm 3 m/s 752 mmHg 72%
    06:00 +21°C° 0 mm 3 m/s 752 mmHg 71%
    07:00 +24°C° 0 mm 3 m/s 752 mmHg 60%
    08:00 +26°C° 0 mm 3 m/s 752 mmHg 50%
    09:00 +28°C° 0 mm 2 m/s 753 mmHg 39%
    10:00 +29°C° 0 mm 3 m/s 752 mmHg 36%
    11:00 +30°C° 0 mm 4 m/s 752 mmHg 32%
    12:00 +32°C° 0 mm 4 m/s 752 mmHg 29%
    13:00 +32°C° 0 mm 5 m/s 752 mmHg 31%
    14:00 +32°C° 0 mm 5 m/s 751 mmHg 32%
    15:00 +32°C° 0 mm 5 m/s 751 mmHg 34%
    16:00 +30°C° 0 mm 5 m/s 751 mmHg 41%
    17:00 +28°C° 0 mm 5 m/s 751 mmHg 47%
    18:00 +27°C° 0 mm 4 m/s 751 mmHg 54%
    19:00 +26°C° 0 mm 4 m/s 751 mmHg 57%
    20:00 +25°C° 0 mm 4 m/s 751 mmHg 61%
    21:00 +25°C° 0 mm 3 m/s 751 mmHg 64%
    22:00 +24°C° 0 mm 3 m/s 751 mmHg 64%
    23:00 +24°C° 0 mm 3 m/s 751 mmHg 64%
    Voir plus